SCP
0 0 0 0 -0 -0 -0 -0 0 0 0 0 0 0 0 0 0 0 0 0 -0 -0 0 -0 -0 -0 -0 -0 -0 -0 -0 -0 -0 -0 -0 -0 -0 -0 -0 -0 -0 -0 -0 -0 -0 -0 -0 -0 -0
0 0 0 0 -0 -0 -0 0 0 0 0 0 0 0 0 0 0 0 0 -0 -0 -0 0 -0 -0 -0 -0 -0 -0 -0 -0 -0 -0 -0 -0 -0 -0 -0 -0 -0 -0 -0 -0 -0 -0 -0 -0 -0 -0
0 0 0 0 -0 -0 0 -0 0 0 0 0 0 0 0 0 0 0 0 0 0 0 0 0 -0 -0 -0 -0 0 -0 -0 -0 -0 -0 -0 -0 -0 -0 -0 -0 -0 -0 -0 -0 -0 -0 -0 -0 -0
0 0 0 0 -0 0 0 0 0 0 0 0 0 0 0 0 0 0 0 0 0 0 0 0 0 -0 -0 -0 -0 -0 -0 -0 -0 -0 -0 -0 -0 -0 -0 -0 -0 -0 -0 -0 -0 -0 -0 -0 -0
0 0 0 0 0 0 0 0 -0 0 0 0 0 0 0 0 -0 0 -0 0 0 0 0 0 0 -0 -0 -0 -0 -0 -0 -0 -0 -0 -0 -0 -0 -0 -0 -0 -0 -0 -0 -0 -0 -0 -0 -0 -0
0 0 0 -0 0 0 -0 -0 -0 0 0 0 0 0 0 -0 0 0 -0 -0 0 0 0 0 -0 -0 -0 -0 -0 -0 -0 -0 -0 -0 -0 -0 -0 -0 -0 -0 -0 -0 -0 -0 -0 -0 -0 -0 -0
0 0 0 0 -0 0 -0 -0 0 -0 -0 0 -0 0 0 -0 0 0 0 -0 0 0 -0 0 0 -0 -0 -0 -0 -0 -0 -0 -0 -0 -0 -0 -0 -0 -0 -0 -0 -0 -0 -0 -0 -0 -0 -0 -0
0 0 0 0 -0 0 -0 0 -0 -0 -0 -0 -0 -0 0 0 -0 -0 0 0 0 0 0 0 0 -0 -0 -0 -0 -0 -0 -0 -0 -0 -0 -0 -0 -0 -0 -0 -0 -0 -0 -0 -0 -0 -0 -0 -0
0 0 0 0 0 0 0 -0 0 -0 -0 0 -0 -0 -0 -0 -0 -0 -0 -0 0 0 -0 -0 -0 -0 -0 -0 -0 -0 -0 -0 -0 -0 -0 0 0 0 0 0 -0 -0 -0 -0 -0 -0 -0 -0 -0
0 0 0 0 0 0 0 -0 -0 0 0 0 0 0 -0 -0 -0 -0 -0 -0 -0 -0 -0 -0 -0 -0 -0 -0 -0 0 0 0 0 0 0 0 0 0 0 0 0 -0 -0 -0 -0 -0 -0 0 0
0 0 0 0 0 0 0 0 0 0 0 -0 -0 0 -0 -0 -0 -0 -0 -0 -0 -0 -0 -0 -0 -0 -0 -0 0 0 0 0 0 0 0 0 0 0 0 0 0 0 0 0 0 0 0 0 0
0 0 0 0 0 0 0 0 0 0 0 0 0 0 -0 -0 -0 -0 -0 -0 -0 -0 -0 -0 -0 -0 -0 -0 -0 0 0 0 0 0 0 0 0 0 0 0 0 0 0 0 0 0 0 0 0
0 0 0 0 0 0 0 0 0 0 -0 0 0 0 -0 -0 -0 -0 -0 -0 -0 -0 -0 -0 -0 -0 -0 -0 -0 -0 0 0 0 0 0 0 0 0 0 0 0 0 0 0 0 0 0 0 0
0 0 0 0 0 0 0 0 0 0 0 0 0 0 0 0 -0 0 0 0 -0 -0 -0 -0 -0 -0 -0 -0 -0 0 0 0 0 0 0 0 0 0 0 0 0 0 0 0 0 0 0 0 0
0 0 0 0 0 0 0 0 0 0 0 0 0 0 0 0 0 0 -0 -0 -0 -0 -0 -0 -0 -0 -0 -0 -0 -0 0 0 0 0 0 0 0 0 0 0 0 0 0 0 0 0 0 0 0
0 0 0 0 0 0 0 0 0 0 0 0 0 0 0 0 0 0 0 0 0 0 0 -0 0 -0 -0 -0 -0 0 0 0 0 0 0 0 0 0 0 0 0 0 0 0 0 0 0 0 0
0 0 0 0 0 0 0 0 0 0 0 0 0 0 0 0 0 0 0 0 0 0 0 0 0 -0 -0 0 0 0 0 0 0 0 0 0 0 0 0 0 0 0 0 0 0 0 0 0 0
0 0 0 0 0 0 0 0 0 0 0 0 0 0 0 0 0 0 0 0 0 0 0 0 0 0 0 0 0 0 0 0 0 0 0 0 0 0 0 0 0 0 0 0 0 0 0 0 0
0 0 0 0 0 0 0 0 0 0 0 0 0 0 0 0 0 0 0 0 0 0 0 0 0 0 0 0 0 0 0 0 0 0 0 0 0 0 0 0 0 0 0 0 0 0 0 0 0
0 0 0 0 0 0 0 0 0 0 0 0 0 0 0 0 0 -0 0 0 0 0 0 0 0 0 0 0 0 0 0 0 0 0 0 0 0 0 0 0 0 0 0 0 0 0 0 0 0
0 0 0 0 0 0 0 0 0 0 0 0 0 0 0 0 0 0 0 0 0 0 0 0 0 0 0 0 0 0 0 0 0 0 0 0 0 0 0 0 0 0 0 0 0 0 0 0 0
0 0 0 0 0 0 0 -0 0 0 0 0 0 0 0 0 0 0 0 0 0 0 0 0 0 0 0 0 0 0 0 0 0 0 0 0 0 0 0 0 0 0 0 0 0 0 0 0 0
0 0 0 0 0 0 0 0 -0 0 0 0 0 0 0 0 0 0 0 0 0 0 0 0 0 0 0 0 0 0 0 0 0 0 0 0 0 0 0 0 0 0 0 0 0 0 0 0 0
0 0 0 0 0 0 0 0 -0 -0 -0 0 0 0 0 0 0 0 0 0 0 0 0 0 0 0 0 0 0 0 0 0 0 0 0 0 0 0 0 0 0 0 0 0 0 0 0 0 0
0 0 0 0 0 0 0 0 0 0 0 0 0 0 0 0 0 0 0 0 0 0 0 0 0 0 0 0 0 0 0 0 0 0 0 0 0 0 0 0 0 0 0 0 0 0 0 0 0
0 0 0 0 0 0 0 0 0 0 0 0 0 0 0 0 0 0 0 0 0 0 0 0 0 0 0 0 0 0 0 0 0 0 0 0 0 0 0 0 0 0 0 0 0 0 0 0 0
0 0 0 0 0 0 0 0 0 0 0 0 0 0 0 0 0 0 0 0 0 0 0 0 0 0 0 0 0 0 0 0 0 0 0 0 0 0 0 0 0 0 0 0 0 0 0 0 0
0 0 0 0 0 0 0 0 0 0 0 0 0 0 0 0 0 0 0 0 0 0 0 0 0 0 0 0 0 0 0 0 0 0 0 0 0 0 0 0 0 0 0 0 0 0 0 0 0
0 0 0 0 0 0 0 0 0 0 0 0 0 0 0 0 0 0 0 0 0 0 0 0 0 0 0 0 0 0 0 0 0 0 0 0 0 0 0 0 0 0 0 0 0 0 0 0 0
0 0 0 0 0 0 0 0 0 0 0 0 0 0 0 0 0 0 0 0 0 0 0 0 0 0 0 0 0 0 0 0 0 0 0 0 0 0 0 0 0 0 0 0 0 0 0 0 0
Wind_Speed_500mb
15 14 9 7 7 10 0 6 2 5 3 7 13 9 11 8 7 6 28 36 48 44 43 35 28 24 20 20 18 19 18 24 25 25 26 31 24 15 14 22 23 23 25 26 27 28 28 30 31
15 9 3 6 9 7 8 6 11 5 16 36 23 17 6 3 6 15 44 42 51 45 43 36 28 24 20 20 21 22 23 24 22 25 27 31 23 14 11 18 21 22 25 28 30 30 28 28 30
10 5 2 8 7 8 9 8 10 8 19 8 9 11 6 9 10 37 34 53 50 47 40 34 28 24 21 18 20 22 22 23 21 23 24 29 21 16 11 18 22 22 24 24 25 26 26 25 27
8 7 10 8 5 6 8 11 13 12 5 5 18 12 6 5 21 35 42 57 52 44 37 33 30 25 19 16 17 18 19 20 21 22 24 29 22 13 9 16 18 21 23 24 27 26 25 25 28
12 7 7 7 8 6 2 17 25 7 7 10 11 8 5 18 19 25 44 54 49 42 35 31 29 25 21 17 15 15 16 18 18 18 20 20 16 10 7 11 16 18 21 21 23 27 28 26 25
7 5 8 5 6 7 2 21 15 10 11 14 11 16 11 27 18 20 44 45 43 38 37 34 32 27 23 20 17 15 15 15 15 15 15 14 10 8 7 10 14 16 17 16 21 24 19 19 21
12 8 11 10 8 4 11 21 11 16 12 11 21 10 6 30 24 21 35 39 37 38 39 38 35 32 27 22 18 15 13 12 11 12 12 11 9 8 8 10 13 15 16 15 17 15 13 15 17
8 10 6 4 9 9 11 19 15 25 12 10 19 8 8 31 34 30 35 33 36 36 38 41 38 35 32 27 21 17 14 12 11 11 10 9 9 9 9 11 13 15 15 16 13 11 12 13 14
9 9 4 9 9 6 19 7 11 11 16 17 18 9 8 35 36 44 43 44 36 35 36 41 40 39 36 32 28 24 20 17 15 13 11 9 9 9 10 11 12 14 14 15 12 10 10 10 11
9 8 16 7 6 9 15 8 21 10 14 13 17 17 16 43 45 52 58 58 53 45 43 41 41 43 42 38 34 30 27 24 21 17 14 13 12 12 12 13 13 13 13 12 12 10 8 7 6
8 10 10 6 6 12 15 4 13 15 6 23 34 30 30 48 52 55 57 57 53 52 50 49 46 40 44 43 40 38 34 30 27 24 21 20 18 15 15 14 14 14 11 10 10 8 6 4 1
8 6 11 12 7 8 9 7 5 23 17 11 31 29 36 49 56 59 61 61 58 57 55 49 42 44 45 46 47 43 40 36 33 30 29 27 22 16 18 15 12 12 9 9 9 7 5 3 1
7 7 10 10 9 6 8 9 11 27 32 18 17 27 43 45 50 55 54 59 61 62 62 59 55 49 48 48 49 47 41 39 37 37 35 32 29 22 20 19 17 15 10 8 7 7 1 1 2
13 9 8 8 8 7 6 5 7 10 15 33 34 29 38 47 47 52 61 62 68 65 65 65 64 60 51 49 51 49 48 46 43 44 41 38 35 32 27 24 23 23 19 11 11 5 6 5 8
12 6 5 8 6 2 6 8 17 30 13 13 36 37 39 49 50 57 54 58 61 64 66 69 71 68 63 55 50 48 54 50 49 47 46 45 43 42 38 33 32 30 19 21 17 16 19 18 15
8 10 3 4 7 1 6 16 10 4 17 21 22 22 42 50 54 56 59 62 62 67 70 70 73 74 70 65 59 57 54 57 57 54 54 52 50 48 47 47 42 33 30 32 29 26 28 29 26
12 6 6 12 16 3 6 12 9 3 6 5 10 20 34 42 51 60 61 65 65 66 68 70 73 75 73 71 67 65 63 61 63 61 61 61 58 56 54 50 52 51 51 47 43 41 40 38 36
11 6 6 7 5 4 4 18 19 25 21 32 35 39 39 48 50 49 53 57 63 64 68 71 71 73 74 74 71 74 74 69 65 69 68 66 67 59 61 57 57 60 61 55 53 52 49 46 43
11 8 9 6 1 6 14 15 21 46 43 51 54 54 55 59 58 63 58 57 58 65 71 71 75 75 76 84 84 84 86 84 78 74 71 71 69 69 64 61 61 65 71 64 65 64 57 55 52
5 5 4 6 2 8 9 20 20 25 37 57 64 68 70 66 63 67 62 59 62 59 63 72 75 74 75 79 81 87 84 87 80 76 73 73 73 69 74 69 68 69 73 76 71 73 68 69 65
6 9 8 10 5 2 10 17 13 12 29 50 57 58 51 39 39 33 33 43 57 62 64 65 69 75 75 77 84 90 95 95 91 87 81 82 74 77 76 76 73 73 71 75 81 76 78 81 80
6 13 9 8 6 7 3 12 11 10 19 15 57 58 56 48 38 36 33 32 35 44 54 57 62 71 76 80 85 85 88 93 91 92 86 85 77 76 85 74 79 80 77 78 75 81 80 84 99
12 8 7 5 6 4 6 3 14 6 12 24 27 32 27 18 14 9 7 9 19 26 35 48 52 56 69 80 82 80 82 87 92 87 84 84 84 79 77 80 79 84 82 82 78 82 88 90 92
15 12 13 9 5 5 15 15 10 8 13 7 9 19 17 16 15 8 2 4 4 10 19 26 35 43 51 64 75 78 75 78 82 84 82 77 74 70 78 81 82 86 86 89 87 83 88 91 104
8 12 3 6 4 11 2 4 15 16 14 9 11 19 20 10 9 9 7 6 10 15 20 25 30 32 34 43 57 65 68 70 73 70 72 73 71 70 69 74 79 82 86 91 93 92 92 88 95
16 17 12 14 8 8 5 13 12 9 17 16 7 11 13 10 8 6 9 15 18 19 19 16 18 19 25 31 39 48 54 58 61 63 64 70 68 64 60 62 68 78 81 85 88 89 90 92 97
12 13 12 13 5 6 9 12 18 8 2 10 17 17 23 20 18 12 9 11 13 11 10 13 16 17 20 24 29 36 42 46 48 49 54 59 57 56 53 55 61 68 75 82 88 93 96 98 96
10 16 8 5 4 7 8 8 10 2 13 11 16 29 34 31 23 19 19 18 18 15 11 8 10 10 10 11 11 14 20 25 31 36 40 43 44 47 49 53 58 63 69 74 79 84 86 88 85
5 6 5 9 11 11 2 11 15 15 14 18 17 29 35 35 27 22 27 25 22 20 19 10 8 15 15 10 9 12 15 20 26 32 33 38 43 46 51 52 56 60 61 63 66 71 74 78 78
5 20 16 11 12 6 6 24 9 11 19 37 18 20 22 25 20 18 23 23 25 26 21 16 17 12 11 11 11 17 22 29 33 37 40 45 50 54 56 56 58 59 58 58 61 64 67 71 74
Wind_Direction_500mb
247 251 293 328 52 66 106 235 226 149 159 150 150 165 165 100 158 204 140 159 168 167 163 156 152 140 133 117 119 115 113 112 121 121 121 116 115 104 93 79 83 96 100 101 101 98 95 93 91
223 224 302 79 91 82 266 252 169 205 135 118 105 110 87 119 139 150 148 158 163 166 162 166 159 150 132 138 124 111 107 109 115 121 128 126 123 119 87 79 95 102 104 104 97 98 94 87 84
187 150 118 94 108 165 188 210 187 144 157 150 111 80 102 142 173 162 159 161 164 168 166 167 163 155 153 134 119 115 109 111 116 125 126 131 136 136 103 90 106 112 115 111 106 109 99 91 89
144 141 65 83 184 229 206 186 169 140 127 126 133 79 106 145 152 163 161 167 165 169 170 172 169 168 156 140 124 121 120 119 119 123 127 134 148 157 120 101 114 123 127 112 112 115 103 96 94
157 103 64 77 297 288 199 166 155 136 156 137 149 163 113 145 162 169 169 175 176 176 177 179 180 178 167 156 147 142 131 122 116 116 127 143 153 145 136 110 124 133 138 139 133 116 107 101 103
105 104 71 137 258 305 57 166 156 154 165 153 125 135 146 172 177 166 180 178 184 189 186 187 189 188 181 177 170 157 143 130 120 118 120 138 143 146 158 126 132 139 148 152 142 141 121 110 111
127 90 173 151 178 241 206 185 189 157 166 199 156 129 197 190 184 174 179 182 191 200 199 194 194 193 192 191 181 170 158 145 134 126 125 133 138 142 152 138 143 154 164 160 159 150 132 115 121
138 91 115 187 182 219 173 161 188 164 184 178 173 186 223 187 181 175 178 186 187 197 207 203 200 200 200 201 196 185 177 170 162 151 142 136 143 150 154 153 155 163 174 169 168 157 139 122 120
130 69 161 201 163 192 157 141 159 193 158 183 200 228 220 186 179 177 179 190 197 200 206 207 209 208 209 208 205 200 194 193 192 184 172 163 161 162 164 162 165 173 169 181 174 166 148 139 141
100 119 204 209 191 183 165 168 159 166 166 200 212 214 191 186 190 188 187 192 201 202 201 211 213 216 213 212 213 211 207 207 206 203 196 185 177 176 176 169 169 173 177 178 173 168 157 144 144
143 175 185 221 143 150 158 171 168 154 236 213 215 210 194 190 196 200 200 203 205 203 203 209 218 217 219 219 219 219 217 215 212 209 207 200 193 193 187 179 177 178 177 176 171 165 160 161 170
119 163 164 175 157 135 157 172 218 204 223 243 236 224 210 198 200 206 208 209 211 209 214 220 222 221 224 225 228 229 224 222 221 220 215 213 207 203 196 193 196 188 174 173 173 174 181 189 210
144 157 170 171 184 213 187 228 229 249 237 230 206 219 215 213 214 214 218 216 216 217 218 221 226 223 227 231 230 233 234 234 232 228 225 220 217 213 204 203 203 198 190 184 170 163 178 287 264
178 145 159 205 183 195 196 209 192 262 239 227 236 237 223 223 228 223 219 222 220 223 224 224 226 230 232 233 233 227 230 233 238 236 234 229 223 221 219 213 207 207 203 203 212 231 256 273 275
116 106 338 231 240 205 191 274 236 245 248 247 236 237 232 235 234 234 234 229 227 229 227 226 227 230 233 237 236 229 226 233 238 239 239 236 231 226 226 224 218 216 232 226 230 262 258 250 270
75 52 103 320 162 219 124 266 266 305 206 226 235 242 239 240 241 243 240 239 236 231 231 230 230 231 234 237 237 236 230 231 234 237 242 241 237 233 231 229 232 240 240 231 242 255 265 261 254
10 184 193 316 201 126 150 264 275 166 125 225 239 245 254 256 248 246 244 243 241 239 237 234 232 233 233 234 238 239 239 239 236 239 239 240 240 236 235 238 237 237 235 230 231 233 241 248 248
189 185 221 235 210 166 201 259 277 267 274 277 277 272 262 260 258 255 253 250 245 243 241 239 237 237 235 235 237 237 240 245 245 242 245 244 240 243 236 240 242 242 240 241 242 241 245 239 240
139 156 172 228 70 178 233 264 267 277 285 279 274 269 269 267 267 264 258 254 251 245 241 239 237 236 235 233 233 234 235 239 243 247 247 246 246 247 246 242 244 247 246 248 246 243 242 241 237
122 129 259 300 54 163 305 273 261 264 264 264 271 274 274 277 275 268 262 254 251 249 246 241 238 237 237 238 239 238 241 242 246 249 248 250 247 248 247 250 247 248 250 249 247 249 247 247 240
202 177 205 215 7 19 339 288 264 279 259 269 268 270 270 269 288 286 271 257 248 246 245 247 246 241 239 239 240 240 240 242 242 243 246 243 251 249 248 246 253 248 253 257 253 258 249 252 246
203 202 177 163 100 238 34 285 293 277 294 294 273 268 273 281 291 281 277 260 250 250 250 251 249 247 244 241 240 243 245 245 249 249 249 248 250 254 249 251 251 254 253 252 257 261 253 253 249
211 125 156 90 109 38 318 329 271 339 293 266 299 309 292 268 274 270 281 268 249 246 248 245 248 250 246 243 244 245 247 250 251 254 255 251 255 256 255 258 258 256 257 255 256 259 252 252 262
143 82 48 57 89 295 208 179 271 208 216 293 343 18 45 65 82 99 0 314 270 237 245 246 246 250 249 244 243 245 249 254 255 255 255 257 258 256 257 255 255 259 258 260 262 260 264 254 261
93 85 353 340 357 230 93 143 251 266 245 237 288 334 346 328 307 311 295 281 275 271 268 260 255 252 247 245 244 246 251 255 259 264 266 265 263 260 257 257 259 259 263 264 265 267 263 260 259
186 159 165 196 207 261 89 236 251 244 271 276 279 323 9 22 0 323 293 294 296 290 288 280 256 245 244 240 243 246 251 256 261 263 265 266 267 268 267 263 260 259 261 260 264 264 267 263 264
197 207 153 108 37 47 226 291 300 294 111 52 52 43 46 38 44 45 16 325 308 306 283 267 256 242 239 241 241 246 251 255 259 263 264 264 264 265 263 259 256 256 257 260 263 265 266 266 265
163 153 81 9 158 251 261 262 225 247 232 106 62 50 40 38 46 44 28 13 3 353 334 281 243 249 250 245 244 255 262 263 260 255 258 263 264 265 264 262 260 258 258 259 260 262 265 267 266
134 180 91 131 159 185 237 254 224 227 129 110 80 58 35 26 33 44 46 36 27 19 15 11 105 101 92 51 356 325 320 307 290 282 278 278 277 271 269 267 265 263 262 260 260 262 265 267 266
274 207 169 173 217 246 167 253 321 164 131 111 64 39 21 22 18 39 58 46 39 41 47 86 103 89 353 323 313 309 296 288 295 300 295 286 280 277 275 274 272 270 267 264 263 265 266 267 266
Wind_Speed_850mb
15 14 9 7 7 10 0 6 2 5 3 7 13 9 11 8 7 6 28 36 48 44 43 35 28 24 20 20 18 19 18 24 25 25 26 31 24 15 14 22 23 23 25 26 27 28 28 30 31
15 9 3 6 9 7 8 6 11 5 16 36 23 17 6 3 6 15 44 42 51 45 43 36 28 24 20 20 21 22 23 24 22 25 27 31 23 14 11 18 21 22 25 28 30 30 28 28 30
10 5 2 8 7 8 9 8 10 8 19 8 9 11 6 9 10 37 34 53 50 47 40 34 28 24 21 18 20 22 22 23 21 23 24 29 21 16 11 18 22 22 24 24 25 26 26 25 27
8 7 10 8 5 6 8 11 13 12 5 5 18 12 6 5 21 35 42 57 52 44 37 33 30 25 19 16 17 18 19 20 21 22 24 29 22 13 9 16 18 21 23 24 27 26 25 25 28
12 7 7 7 8 6 2 17 25 7 7 10 11 8 5 18 19 25 44 54 49 42 35 31 29 25 21 17 15 15 16 18 18 18 20 20 16 10 7 11 16 18 21 21 23 27 28 26 25
7 5 8 5 6 7 2 21 15 10 11 14 11 16 11 27 18 20 44 45 43 38 37 34 32 27 23 20 17 15 15 15 15 15 15 14 10 8 7 10 14 16 17 16 21 24 19 19 21
12 8 11 10 8 4 11 21 11 16 12 11 21 10 6 30 24 21 35 39 37 38 39 38 35 32 27 22 18 15 13 12 11 12 12 11 9 8 8 10 13 15 16 15 17 15 13 15 17
8 10 6 4 9 9 11 19 15 25 12 10 19 8 8 31 34 30 35 33 36 36 38 41 38 35 32 27 21 17 14 12 11 11 10 9 9 9 9 11 13 15 15 16 13 11 12 13 14
9 9 4 9 9 6 19 7 11 11 16 17 18 9 8 35 36 44 43 44 36 35 36 41 40 39 36 32 28 24 20 17 15 13 11 9 9 9 10 11 12 14 14 15 12 10 10 10 11
9 8 16 7 6 9 15 8 21 10 14 13 17 17 16 43 45 52 58 58 53 45 43 41 41 43 42 38 34 30 27 24 21 17 14 13 12 12 12 13 13 13 13 12 12 10 8 7 6
8 10 10 6 6 12 15 4 13 15 6 23 34 30 30 48 52 55 57 57 53 52 50 49 46 40 44 43 40 38 34 30 27 24 21 20 18 15 15 14 14 14 11 10 10 8 6 4 1
8 6 11 12 7 8 9 7 5 23 17 11 31 29 36 49 56 59 61 61 58 57 55 49 42 44 45 46 47 43 40 36 33 30 29 27 22 16 18 15 12 12 9 9 9 7 5 3 1
7 7 10 10 9 6 8 9 11 27 32 18 17 27 43 45 50 55 54 59 61 62 62 59 55 49 48 48 49 47 41 39 37 37 35 32 29 22 20 19 17 15 10 8 7 7 1 1 2
13 9 8 8 8 7 6 5 7 10 15 33 34 29 38 47 47 52 61 62 68 65 65 65 64 60 51 49 51 49 48 46 43 44 41 38 35 32 27 24 23 23 19 11 11 5 6 5 8
12 6 5 8 6 2 6 8 17 30 13 13 36 37 39 49 50 57 54 58 61 64 66 69 71 68 63 55 50 48 54 50 49 47 46 45 43 42 38 33 32 30 19 21 17 16 19 18 15
8 10 3 4 7 1 6 16 10 4 17 21 22 22 42 50 54 56 59 62 62 67 70 70 73 74 70 65 59 57 54 57 57 54 54 52 50 48 47 47 42 33 30 32 29 26 28 29 26
12 6 6 12 16 3 6 12 9 3 6 5 10 20 34 42 51 60 61 65 65 66 68 70 73 75 73 71 67 65 63 61 63 61 61 61 58 56 54 50 52 51 51 47 43 41 40 38 36
11 6 6 7 5 4 4 18 19 25 21 32 35 39 39 48 50 49 53 57 63 64 68 71 71 73 74 74 71 74 74 69 65 69 68 66 67 59 61 57 57 60 61 55 53 52 49 46 43
11 8 9 6 1 6 14 15 21 46 43 51 54 54 55 59 58 63 58 57 58 65 71 71 75 75 76 84 84 84 86 84 78 74 71 71 69 69 64 61 61 65 71 64 65 64 57 55 52
5 5 4 6 2 8 9 20 20 25 37 57 64 68 70 66 63 67 62 59 62 59 63 72 75 74 75 79 81 87 84 87 80 76 73 73 73 69 74 69 68 69 73 76 71 73 68 69 65
6 9 8 10 5 2 10 17 13 12 29 50 57 58 51 39 39 33 33 43 57 62 64 65 69 75 75 77 84 90 95 95 91 87 81 82 74 77 76 76 73 73 71 75 81 76 78 81 80
6 13 9 8 6 7 3 12 11 10 19 15 57 58 56 48 38 36 33 32 35 44 54 57 62 71 76 80 85 85 88 93 91 92 86 85 77 76 85 74 79 80 77 78 75 81 80 84 99
12 8 7 5 6 4 6 3 14 6 12 24 27 32 27 18 14 9 7 9 19 26 35 48 52 56 69 80 82 80 82 87 92 87 84 84 84 79 77 80 79 84 82 82 78 82 88 90 92
15 12 13 9 5 5 15 15 10 8 13 7 9 19 17 16 15 8 2 4 4 10 19 26 35 43 51 64 75 78 75 78 82 84 82 77 74 70 78 81 82 86 86 89 87 83 88 91 104
8 12 3 6 4 11 2 4 15 16 14 9 11 19 20 10 9 9 7 6 10 15 20 25 30 32 34 43 57 65 68 70 73 70 72 73 71 70 69 74 79 82 86 91 93 92 92 88 95
16 17 12 14 8 8 5 13 12 9 17 16 7 11 13 10 8 6 9 15 18 19 19 16 18 19 25 31 39 48 54 58 61 63 64 70 68 64 60 62 68 78 81 85 88 89 90 92 97
12 13 12 13 5 6 9 12 18 8 2 10 17 17 23 20 18 12 9 11 13 11 10 13 16 17 20 24 29 36 42 46 48 49 54 59 57 56 53 55 61 68 75 82 88 93 96 98 96
10 16 8 5 4 7 8 8 10 2 13 11 16 29 34 31 23 19 19 18 18 15 11 8 10 10 10 11 11 14 20 25 31 36 40 43 44 47 49 53 58 63 69 74 79 84 86 88 85
5 6 5 9 11 11 2 11 15 15 14 18 17 29 35 35 27 22 27 25 22 20 19 10 8 15 15 10 9 12 15 20 26 32 33 38 43 46 51 52 56 60 61 63 66 71 74 78 78
5 20 16 11 12 6 6 24 9 11 19 37 18 20 22 25 20 18 23 23 25 26 21 16 17 12 11 11 11 17 22 29 33 37 40 45 50 54 56 56 58 59 58 58 61 64 67 71 74
Wind_Direction_850mb
247 251 293 328 52 66 106 235 226 149 159 150 150 165 165 100 158 204 140 159 168 167 163 156 152 140 133 117 119 115 113 112 121 121 121 116 115 104 93 79 83 96 100 101 101 98 95 93 91
223 224 302 79 91 82 266 252 169 205 135 118 105 110 87 119 139 150 148 158 163 166 162 166 159 150 132 138 124 111 107 109 115 121 128 126 123 119 87 79 95 102 104 104 97 98 94 87 84
187 150 118 94 108 165 188 210 187 144 157 150 111 80 102 142 173 162 159 161 164 168 166 167 163 155 153 134 119 115 109 111 116 125 126 131 136 136 103 90 106 112 115 111 106 109 99 91 89
144 141 65 83 184 229 206 186 169 140 127 126 133 79 106 145 152 163 161 167 165 169 170 172 169 168 156 140 124 121 120 119 119 123 127 134 148 157 120 101 114 123 127 112 112 115 103 96 94
157 103 64 77 297 288 199 166 155 136 156 137 149 163 113 145 162 169 169 175 176 176 177 179 180 178 167 156 147 142 131 122 116 116 127 143 153 145 136 110 124 133 138 139 133 116 107 101 103
105 104 71 137 258 305 57 166 156 154 165 153 125 135 146 172 177 166 180 178 184 189 186 187 189 188 181 177 170 157 143 130 120 118 120 138 143 146 158 126 132 139 148 152 142 141 121 110 111
127 90 173 151 178 241 206 185 189 157 166 199 156 129 197 190 184 174 179 182 191 200 199 194 194 193 192 191 181 170 158 145 134 126 125 133 138 142 152 138 143 154 164 160 159 150 132 115 121
138 91 115 187 182 219 173 161 188 164 184 178 173 186 223 187 181 175 178 186 187 197 207 203 200 200 200 201 196 185 177 170 162 151 142 136 143 150 154 153 155 163 174 169 168 157 139 122 120
130 69 161 201 163 192 157 141 159 193 158 183 200 228 220 186 179 177 179 190 197 200 206 207 209 208 209 208 205 200 194 193 192 184 172 163 161 162 164 162 165 173 169 181 174 166 148 139 141
100 119 204 209 191 183 165 168 159 166 166 200 212 214 191 186 190 188 187 192 201 202 201 211 213 216 213 212 213 211 207 207 206 203 196 185 177 176 176 169 169 173 177 178 173 168 157 144 144
143 175 185 221 143 150 158 171 168 154 236 213 215 210 194 190 196 200 200 203 205 203 203 209 218 217 219 219 219 219 217 215 212 209 207 200 193 193 187 179 177 178 177 176 171 165 160 161 170
119 163 164 175 157 135 157 172 218 204 223 243 236 224 210 198 200 206 208 209 211 209 214 220 222 221 224 225 228 229 224 222 221 220 215 213 207 203 196 193 196 188 174 173 173 174 181 189 210
144 157 170 171 184 213 187 228 229 249 237 230 206 219 215 213 214 214 218 216 216 217 218 221 226 223 227 231 230 233 234 234 232 228 225 220 217 213 204 203 203 198 190 184 170 163 178 287 264
178 145 159 205 183 195 196 209 192 262 239 227 236 237 223 223 228 223 219 222 220 223 224 224 226 230 232 233 233 227 230 233 238 236 234 229 223 221 219 213 207 207 203 203 212 231 256 273 275
116 106 338 231 240 205 191 274 236 245 248 247 236 237 232 235 234 234 234 229 227 229 227 226 227 230 233 237 236 229 226 233 238 239 239 236 231 226 226 224 218 216 232 226 230 262 258 250 270
75 52 103 320 162 219 124 266 266 305 206 226 235 242 239 240 241 243 240 239 236 231 231 230 230 231 234 237 237 236 230 231 234 237 242 241 237 233 231 229 232 240 240 231 242 255 265 261 254
10 184 193 316 201 126 150 264 275 166 125 225 239 245 254 256 248 246 244 243 241 239 237 234 232 233 233 234 238 239 239 239 236 239 239 240 240 236 235 238 237 237 235 230 231 233 241 248 248
189 185 221 235 210 166 201 259 277 267 274 277 277 272 262 260 258 255 253 250 245 243 241 239 237 237 235 235 237 237 240 245 245 242 245 244 240 243 236 240 242 242 240 241 242 241 245 239 240
139 156 172 228 70 178 233 264 267 277 285 279 274 269 269 267 267 264 258 254 251 245 241 239 237 236 235 233 233 234 235 239 243 247 247 246 246 247 246 242 244 247 246 248 246 243 242 241 237
122 129 259 300 54 163 305 273 261 264 264 264 271 274 274 277 275 268 262 254 251 249 246 241 238 237 237 238 239 238 241 242 246 249 248 250 247 248 247 250 247 248 250 249 247 249 247 247 240
202 177 205 215 7 19 339 288 264 279 259 269 268 270 270 269 288 286 271 257 248 246 245 247 246 241 239 239 240 240 240 242 242 243 246 243 251 249 248 246 253 248 253 257 253 258 249 252 246
203 202 177 163 100 238 34 285 293 277 294 294 273 268 273 281 291 281 277 260 250 250 250 251 249 247 244 241 240 243 245 245 249 249 249 248 250 254 249 251 251 254 253 252 257 261 253 253 249
211 125 156 90 109 38 318 329 271 339 293 266 299 309 292 268 274 270 281 268 249 246 248 245 248 250 246 243 244 245 247 250 251 254 255 251 255 256 255 258 258 256 257 255 256 259 252 252 262
143 82 48 57 89 295 208 179 271 208 216 293 343 18 45 65 82 99 0 314 270 237 245 246 246 250 249 244 243 245 249 254 255 255 255 257 258 256 257 255 255 259 258 260 262 260 264 254 261
93 85 353 340 357 230 93 143 251 266 245 237 288 334 346 328 307 311 295 281 275 271 268 260 255 252 247 245 244 246 251 255 259 264 266 265 263 260 257 257 259 259 263 264 265 267 263 260 259
186 159 165 196 207 261 89 236 251 244 271 276 279 323 9 22 0 323 293 294 296 290 288 280 256 245 244 240 243 246 251 256 261 263 265 266 267 268 267 263 260 259 261 260 264 264 267 263 264
197 207 153 108 37 47 226 291 300 294 111 52 52 43 46 38 44 45 16 325 308 306 283 267 256 242 239 241 241 246 251 255 259 263 264 264 264 265 263 259 256 256 257 260 263 265 266 266 265
163 153 81 9 158 251 261 262 225 247 232 106 62 50 40 38 46 44 28 13 3 353 334 281 243 249 250 245 244 255 262 263 260 255 258 263 264 265 264 262 260 258 258 259 260 262 265 267 266
134 180 91 131 159 185 237 254 224 227 129 110 80 58 35 26 33 44 46 36 27 19 15 11 105 101 92 51 356 325 320 307 290 282 278 278 277 271 269 267 265 263 262 260 260 262 265 267 266
274 207 169 173 217 246 167 253 321 164 131 111 64 39 21 22 18 39 58 46 39 41 47 86 103 89 353 323 313 309 296 288 295 300 295 286 280 277 275 274 272 270 267 264 263 265 266 267 266